Year,Month,Day,Hour,Minute,Value (Times are PST for insolation in W/m^2)
2016,08,11,00,00,0.00
2016,08,11,00,01,0.00
2016,08,11,00,02,0.00
2016,08,11,00,03,0.00
2016,08,11,00,04,0.00
2016,08,11,00,05,0.00
2016,08,11,00,06,0.00
2016,08,11,00,07,0.00
2016,08,11,00,08,0.00
2016,08,11,00,09,0.00
2016,08,11,00,10,0.00
2016,08,11,00,11,0.00
2016,08,11,00,12,0.00
2016,08,11,00,13,0.00
2016,08,11,00,14,0.00
2016,08,11,00,15,0.00
2016,08,11,00,16,0.00
2016,08,11,00,17,0.00
2016,08,11,00,18,0.00
2016,08,11,00,19,0.00
2016,08,11,00,20,0.00
2016,08,11,00,21,0.00
2016,08,11,00,22,0.00
2016,08,11,00,23,0.00
2016,08,11,00,24,0.00
2016,08,11,00,25,0.00
2016,08,11,00,26,0.00
2016,08,11,00,27,0.00
2016,08,11,00,28,0.00
2016,08,11,00,29,0.00
2016,08,11,00,30,0.00
2016,08,11,00,31,0.00
2016,08,11,00,32,0.00
2016,08,11,00,33,0.00
2016,08,11,00,34,0.00
2016,08,11,00,35,0.00
2016,08,11,00,36,0.00
2016,08,11,00,37,0.00
2016,08,11,00,38,0.00
2016,08,11,00,39,0.00
2016,08,11,00,40,0.00
2016,08,11,00,41,0.00
2016,08,11,00,42,0.00
2016,08,11,00,43,0.00
2016,08,11,00,44,0.00
2016,08,11,00,45,0.00
2016,08,11,00,46,0.00
2016,08,11,00,47,0.00
2016,08,11,00,48,0.00
2016,08,11,00,49,0.00
2016,08,11,00,50,0.00
2016,08,11,00,51,0.00
2016,08,11,00,52,0.00
2016,08,11,00,53,0.00
2016,08,11,00,54,0.00
2016,08,11,00,55,0.00
2016,08,11,00,56,0.00
2016,08,11,00,57,0.00
2016,08,11,00,58,0.00
2016,08,11,00,59,0.00
2016,08,11,01,00,0.00
2016,08,11,01,01,0.00
2016,08,11,01,02,0.00
2016,08,11,01,03,0.00
2016,08,11,01,04,0.00
2016,08,11,01,05,0.00
2016,08,11,01,06,0.00
2016,08,11,01,07,0.00
2016,08,11,01,08,0.00
2016,08,11,01,09,0.00
2016,08,11,01,10,0.00
2016,08,11,01,11,0.00
2016,08,11,01,14,0.00
2016,08,11,01,16,0.00
2016,08,11,01,17,0.00
2016,08,11,01,18,0.00
2016,08,11,01,19,0.00
2016,08,11,01,20,0.00
2016,08,11,01,21,0.00
2016,08,11,01,22,0.00
2016,08,11,01,23,0.00
2016,08,11,01,24,0.00
2016,08,11,01,25,0.00
2016,08,11,01,26,0.00
2016,08,11,01,27,0.00
2016,08,11,01,28,0.00
2016,08,11,01,29,0.00
2016,08,11,01,30,0.00
2016,08,11,01,31,0.00
2016,08,11,01,32,0.00
2016,08,11,01,33,0.00
2016,08,11,01,34,0.00
2016,08,11,01,35,0.00
2016,08,11,01,36,0.00
2016,08,11,01,37,0.00
2016,08,11,01,38,0.00
2016,08,11,01,39,0.00
2016,08,11,01,40,0.00
2016,08,11,01,41,0.00
2016,08,11,01,42,0.00
2016,08,11,01,43,0.00
2016,08,11,01,44,0.00
2016,08,11,01,45,0.00
2016,08,11,01,46,0.00
2016,08,11,01,47,0.00
2016,08,11,01,48,0.00
2016,08,11,01,49,0.00
2016,08,11,01,50,0.00
2016,08,11,01,51,0.00
2016,08,11,01,52,0.00
2016,08,11,01,53,0.00
2016,08,11,01,54,0.00
2016,08,11,01,55,0.00
2016,08,11,01,56,0.00
2016,08,11,01,57,0.00
2016,08,11,01,58,0.00
2016,08,11,01,59,0.00
2016,08,11,02,00,0.00
2016,08,11,02,01,0.00
2016,08,11,02,02,0.00
2016,08,11,02,04,0.00
2016,08,11,02,05,0.00
2016,08,11,02,06,0.00
2016,08,11,02,07,0.00
2016,08,11,02,09,0.00
2016,08,11,02,10,0.00
2016,08,11,02,12,0.00
2016,08,11,02,13,0.00
2016,08,11,02,14,0.00
2016,08,11,02,15,0.00
2016,08,11,02,16,0.00
2016,08,11,02,17,0.00
2016,08,11,02,18,0.00
2016,08,11,02,19,0.00
2016,08,11,02,20,0.00
2016,08,11,02,21,0.00
2016,08,11,02,22,0.00
2016,08,11,02,23,0.00
2016,08,11,02,24,0.00
2016,08,11,02,25,0.00
2016,08,11,02,26,0.00
2016,08,11,02,27,0.00
2016,08,11,02,28,0.00
2016,08,11,02,29,0.00
2016,08,11,02,30,0.00
2016,08,11,02,31,0.00
2016,08,11,02,32,0.00
2016,08,11,02,33,0.00
2016,08,11,02,34,0.00
2016,08,11,02,35,0.00
2016,08,11,02,36,0.00
2016,08,11,02,37,0.00
2016,08,11,02,38,0.00
2016,08,11,02,39,0.00
2016,08,11,02,40,0.00
2016,08,11,02,41,0.00
2016,08,11,02,42,0.00
2016,08,11,02,43,0.00
2016,08,11,02,44,0.00
2016,08,11,02,45,0.00
2016,08,11,02,46,0.00
2016,08,11,02,47,0.00
2016,08,11,02,48,0.00
2016,08,11,02,49,0.00
2016,08,11,02,50,0.00
2016,08,11,02,51,0.00
2016,08,11,02,52,0.00
2016,08,11,02,53,0.00
2016,08,11,02,54,0.00
2016,08,11,02,55,0.00
2016,08,11,02,56,0.00
2016,08,11,02,57,0.00
2016,08,11,02,58,0.00
2016,08,11,02,59,0.00
2016,08,11,03,00,0.00
2016,08,11,03,02,0.00
2016,08,11,03,03,0.00
2016,08,11,03,04,0.00
2016,08,11,03,06,0.00
2016,08,11,03,07,0.00
2016,08,11,03,09,0.00
2016,08,11,03,10,0.00
2016,08,11,03,11,0.00
2016,08,11,03,12,0.00
2016,08,11,03,13,0.00
2016,08,11,03,14,0.00
2016,08,11,03,15,0.00
2016,08,11,03,16,0.00
2016,08,11,03,17,0.00
2016,08,11,03,18,0.00
2016,08,11,03,19,0.00
2016,08,11,03,20,0.00
2016,08,11,03,21,0.00
2016,08,11,03,22,0.00
2016,08,11,03,23,0.00
2016,08,11,03,24,0.00
2016,08,11,03,25,0.00
2016,08,11,03,26,0.00
2016,08,11,03,27,0.00
2016,08,11,03,29,0.00
2016,08,11,03,30,0.00
2016,08,11,03,31,0.00
2016,08,11,03,32,0.00
2016,08,11,03,33,0.00
2016,08,11,03,34,0.00
2016,08,11,03,35,0.00
2016,08,11,03,37,0.00
2016,08,11,03,38,0.00
2016,08,11,03,39,0.00
2016,08,11,03,40,0.00
2016,08,11,03,41,0.00
2016,08,11,03,42,0.00
2016,08,11,03,43,0.00
2016,08,11,03,45,0.00
2016,08,11,03,46,0.00
2016,08,11,03,47,0.00
2016,08,11,03,48,0.00
2016,08,11,03,50,0.00
2016,08,11,03,51,0.00
2016,08,11,03,53,0.00
2016,08,11,03,54,0.00
2016,08,11,03,55,0.00
2016,08,11,03,56,0.00
2016,08,11,03,57,0.00
2016,08,11,03,58,0.00
2016,08,11,03,59,0.00
2016,08,11,04,00,0.00
2016,08,11,04,01,0.00
2016,08,11,04,02,0.00
2016,08,11,04,03,0.00
2016,08,11,04,05,0.00
2016,08,11,04,06,0.00
2016,08,11,04,07,0.00
2016,08,11,04,08,0.00
2016,08,11,04,09,0.00
2016,08,11,04,10,0.00
2016,08,11,04,11,0.00
2016,08,11,04,12,0.00
2016,08,11,04,14,0.00
2016,08,11,04,15,0.00
2016,08,11,04,16,0.00
2016,08,11,04,17,0.00
2016,08,11,04,18,0.00
2016,08,11,04,19,0.00
2016,08,11,04,20,0.00
2016,08,11,04,21,0.00
2016,08,11,04,22,0.00
2016,08,11,04,23,0.00
2016,08,11,04,24,0.00
2016,08,11,04,25,0.00
2016,08,11,04,26,0.00
2016,08,11,04,29,0.00
2016,08,11,04,30,0.00
2016,08,11,04,31,0.00
2016,08,11,04,32,0.00
2016,08,11,04,33,0.00
2016,08,11,04,34,0.00
2016,08,11,04,35,0.00
2016,08,11,04,36,0.00
2016,08,11,04,37,0.00
2016,08,11,04,38,0.00
2016,08,11,04,40,0.00
2016,08,11,04,41,0.00
2016,08,11,04,42,0.00
2016,08,11,04,43,0.00
2016,08,11,04,44,0.00
2016,08,11,04,45,0.00
2016,08,11,04,46,0.00
2016,08,11,04,47,0.00
2016,08,11,04,48,0.00
2016,08,11,04,49,0.00
2016,08,11,04,50,0.00
2016,08,11,04,51,0.00
2016,08,11,04,52,0.00
2016,08,11,04,53,0.00
2016,08,11,04,54,0.00
2016,08,11,04,55,0.00
2016,08,11,04,56,0.00
2016,08,11,04,57,0.00
2016,08,11,04,58,0.00
2016,08,11,04,59,0.00
2016,08,11,05,00,0.00
2016,08,11,05,02,0.00
2016,08,11,05,03,0.00
2016,08,11,05,04,0.00
2016,08,11,05,05,0.00
2016,08,11,05,06,0.00
2016,08,11,05,07,0.00
2016,08,11,05,08,0.00
2016,08,11,05,09,0.00
2016,08,11,05,10,0.00
2016,08,11,05,11,0.00
2016,08,11,05,12,0.00
2016,08,11,05,13,0.00
2016,08,11,05,14,0.00
2016,08,11,05,16,0.00
2016,08,11,05,17,0.00
2016,08,11,05,18,0.00
2016,08,11,05,19,0.00
2016,08,11,05,20,0.00
2016,08,11,05,21,0.00
2016,08,11,05,22,0.00
2016,08,11,05,23,0.00
2016,08,11,05,24,0.00
2016,08,11,05,25,0.00
2016,08,11,05,26,0.00
2016,08,11,05,27,0.00
2016,08,11,05,28,0.00
2016,08,11,05,29,0.00
2016,08,11,05,30,0.00
2016,08,11,05,31,0.00
2016,08,11,05,32,0.00
2016,08,11,05,33,0.00
2016,08,11,05,34,0.00
2016,08,11,05,35,0.00
2016,08,11,05,36,0.00
2016,08,11,05,37,0.00
2016,08,11,05,38,0.00
2016,08,11,05,39,0.00
2016,08,11,05,40,0.00
2016,08,11,05,41,0.00
2016,08,11,05,42,0.00
2016,08,11,05,43,0.00
2016,08,11,05,44,0.00
2016,08,11,05,46,0.00
2016,08,11,05,47,0.00
2016,08,11,05,48,0.00
2016,08,11,05,49,0.00
2016,08,11,05,50,0.00
2016,08,11,05,52,0.00
2016,08,11,05,53,0.00
2016,08,11,05,54,0.00
2016,08,11,05,55,0.00
2016,08,11,05,56,0.00
2016,08,11,05,57,0.00
2016,08,11,05,58,0.00
2016,08,11,05,59,0.00
2016,08,11,06,00,0.00
2016,08,11,06,01,0.00
2016,08,11,06,02,0.00
2016,08,11,06,03,0.00
2016,08,11,06,04,0.00
2016,08,11,06,05,0.00
2016,08,11,06,06,0.00
2016,08,11,06,07,0.00
2016,08,11,06,08,0.00
2016,08,11,06,09,5.00
2016,08,11,06,10,5.00
2016,08,11,06,11,5.00
2016,08,11,06,12,5.00
2016,08,11,06,13,5.00
2016,08,11,06,14,5.00
2016,08,11,06,15,7.00
2016,08,11,06,16,7.00
2016,08,11,06,17,7.00
2016,08,11,06,18,7.00
2016,08,11,06,19,7.00
2016,08,11,06,20,9.00
2016,08,11,06,21,9.00
2016,08,11,06,22,9.00
2016,08,11,06,23,9.00
2016,08,11,06,24,9.00
2016,08,11,06,25,9.00
2016,08,11,06,26,11.00
2016,08,11,06,27,11.00
2016,08,11,06,28,11.00
2016,08,11,06,30,11.00
2016,08,11,06,31,12.00
2016,08,11,06,32,12.00
2016,08,11,06,33,12.00
2016,08,11,06,34,14.00
2016,08,11,06,35,14.00
2016,08,11,06,36,14.00
2016,08,11,06,37,14.00
2016,08,11,06,38,14.00
2016,08,11,06,40,14.00
2016,08,11,06,41,14.00
2016,08,11,06,42,16.00
2016,08,11,06,43,16.00
2016,08,11,06,44,16.00
2016,08,11,06,45,16.00
2016,08,11,06,46,18.00
2016,08,11,06,47,18.00
2016,08,11,06,48,21.00
2016,08,11,06,49,21.00
2016,08,11,06,50,19.00
2016,08,11,06,51,23.00
2016,08,11,06,52,23.00
2016,08,11,06,53,25.00
2016,08,11,06,55,25.00
2016,08,11,06,56,25.00
2016,08,11,06,57,25.00
2016,08,11,06,58,26.00
2016,08,11,06,59,26.00
2016,08,11,07,00,26.00
2016,08,11,07,01,26.00
2016,08,11,07,02,28.00
2016,08,11,07,03,28.00
2016,08,11,07,04,28.00
2016,08,11,07,05,28.00
2016,08,11,07,06,28.00
2016,08,11,07,07,28.00
2016,08,11,07,09,30.00
2016,08,11,07,10,30.00
2016,08,11,07,11,30.00
2016,08,11,07,12,30.00
2016,08,11,07,14,32.00
2016,08,11,07,15,32.00
2016,08,11,07,16,32.00
2016,08,11,07,17,33.00
2016,08,11,07,18,33.00
2016,08,11,07,19,39.00
2016,08,11,07,20,40.00
2016,08,11,07,21,47.00
2016,08,11,07,22,51.00
2016,08,11,07,23,42.00
2016,08,11,07,24,40.00
2016,08,11,07,25,46.00
2016,08,11,07,26,46.00
2016,08,11,07,28,51.00
2016,08,11,07,29,67.00
2016,08,11,07,30,77.00
2016,08,11,07,31,81.00
2016,08,11,07,32,83.00
2016,08,11,07,33,88.00
2016,08,11,07,34,90.00
2016,08,11,07,35,91.00
2016,08,11,07,36,95.00
2016,08,11,07,37,77.00
2016,08,11,07,38,69.00
2016,08,11,07,39,104.00
2016,08,11,07,40,107.00
2016,08,11,07,41,109.00
2016,08,11,07,42,113.00
2016,08,11,07,43,114.00
2016,08,11,07,44,121.00
2016,08,11,07,45,123.00
2016,08,11,07,46,127.00
2016,08,11,07,47,130.00
2016,08,11,07,48,134.00
2016,08,11,07,49,135.00
2016,08,11,07,51,144.00
2016,08,11,07,52,148.00
2016,08,11,07,53,149.00
2016,08,11,07,54,153.00
2016,08,11,07,55,155.00
2016,08,11,07,56,160.00
2016,08,11,07,57,163.00
2016,08,11,07,58,165.00
2016,08,11,07,59,169.00
2016,08,11,08,00,171.00
2016,08,11,08,01,174.00
2016,08,11,08,02,178.00
2016,08,11,08,03,179.00
2016,08,11,08,04,181.00
2016,08,11,08,05,183.00
2016,08,11,08,06,185.00
2016,08,11,08,07,186.00
2016,08,11,08,08,190.00
2016,08,11,08,09,192.00
2016,08,11,08,10,193.00
2016,08,11,08,11,195.00
2016,08,11,08,12,197.00
2016,08,11,08,13,199.00
2016,08,11,08,14,202.00
2016,08,11,08,15,204.00
2016,08,11,08,16,206.00
2016,08,11,08,17,207.00
2016,08,11,08,18,209.00
2016,08,11,08,19,211.00
2016,08,11,08,20,214.00
2016,08,11,08,21,216.00
2016,08,11,08,22,218.00
2016,08,11,08,23,220.00
2016,08,11,08,24,221.00
2016,08,11,08,25,225.00
2016,08,11,08,26,227.00
2016,08,11,08,27,229.00
2016,08,11,08,28,232.00
2016,08,11,08,29,234.00
2016,08,11,08,30,236.00
2016,08,11,08,31,239.00
2016,08,11,08,33,244.00
2016,08,11,08,34,246.00
2016,08,11,08,35,250.00
2016,08,11,08,36,251.00
2016,08,11,08,37,257.00
2016,08,11,08,38,258.00
2016,08,11,08,39,262.00
2016,08,11,08,40,264.00
2016,08,11,08,41,267.00
2016,08,11,08,42,269.00
2016,08,11,08,43,274.00
2016,08,11,08,44,276.00
2016,08,11,08,45,278.00
2016,08,11,08,46,281.00
2016,08,11,08,47,283.00
2016,08,11,08,48,285.00
2016,08,11,08,49,290.00
2016,08,11,08,50,294.00
2016,08,11,08,51,297.00
2016,08,11,08,52,299.00
2016,08,11,08,53,301.00
2016,08,11,08,54,304.00
2016,08,11,08,55,309.00
2016,08,11,08,56,311.00
2016,08,11,08,57,313.00
2016,08,11,08,58,316.00
2016,08,11,08,59,318.00
2016,08,11,09,00,322.00
2016,08,11,09,01,327.00
2016,08,11,09,02,329.00
2016,08,11,09,03,332.00
2016,08,11,09,04,334.00
2016,08,11,09,05,338.00
2016,08,11,09,06,343.00
2016,08,11,09,07,345.00
2016,08,11,09,08,348.00
2016,08,11,09,09,352.00
2016,08,11,09,10,353.00
2016,08,11,09,11,355.00
2016,08,11,09,13,364.00
2016,08,11,09,14,366.00
2016,08,11,09,15,369.00
2016,08,11,09,16,371.00
2016,08,11,09,17,374.00
2016,08,11,09,18,378.00
2016,08,11,09,19,381.00
2016,08,11,09,20,383.00
2016,08,11,09,21,387.00
2016,08,11,09,22,388.00
2016,08,11,09,23,392.00
2016,08,11,09,24,396.00
2016,08,11,09,25,399.00
2016,08,11,09,26,401.00
2016,08,11,09,27,404.00
2016,08,11,09,28,406.00
2016,08,11,09,29,410.00
2016,08,11,09,30,415.00
2016,08,11,09,31,415.00
2016,08,11,09,32,418.00
2016,08,11,09,33,424.00
2016,08,11,09,34,424.00
2016,08,11,09,35,425.00
2016,08,11,09,36,431.00
2016,08,11,09,37,432.00
2016,08,11,09,38,438.00
2016,08,11,09,39,438.00
2016,08,11,09,40,441.00
2016,08,11,09,41,445.00
2016,08,11,09,42,448.00
2016,08,11,09,43,450.00
2016,08,11,09,44,454.00
2016,08,11,09,45,455.00
2016,08,11,09,46,459.00
2016,08,11,09,47,462.00
2016,08,11,09,48,466.00
2016,08,11,09,49,469.00
2016,08,11,09,50,471.00
2016,08,11,09,51,473.00
2016,08,11,09,52,476.00
2016,08,11,09,53,482.00
2016,08,11,09,54,483.00
2016,08,11,09,55,485.00
2016,08,11,09,56,489.00
2016,08,11,09,57,490.00
2016,08,11,09,58,494.00
2016,08,11,09,59,499.00
2016,08,11,10,00,501.00
2016,08,11,10,01,503.00
2016,08,11,10,02,504.00
2016,08,11,10,03,508.00
2016,08,11,10,04,512.00
2016,08,11,10,05,515.00
2016,08,11,10,06,517.00
2016,08,11,10,07,520.00
2016,08,11,10,08,520.00
2016,08,11,10,09,526.00
2016,08,11,10,10,527.00
2016,08,11,10,11,533.00
2016,08,11,10,12,534.00
2016,08,11,10,13,538.00
2016,08,11,10,14,538.00
2016,08,11,10,15,543.00
2016,08,11,10,16,543.00
2016,08,11,10,17,550.00
2016,08,11,10,18,552.00
2016,08,11,10,19,554.00
2016,08,11,10,20,555.00
2016,08,11,10,21,557.00
2016,08,11,10,22,559.00
2016,08,11,10,23,564.00
2016,08,11,10,24,566.00
2016,08,11,10,25,570.00
2016,08,11,10,26,571.00
2016,08,11,10,27,573.00
2016,08,11,10,28,578.00
2016,08,11,10,29,580.00
2016,08,11,10,30,584.00
2016,08,11,10,31,585.00
2016,08,11,10,32,587.00
2016,08,11,10,33,589.00
2016,08,11,10,34,594.00
2016,08,11,10,35,596.00
2016,08,11,10,36,598.00
2016,08,11,10,37,599.00
2016,08,11,10,38,603.00
2016,08,11,10,39,606.00
2016,08,11,10,40,610.00
2016,08,11,10,41,612.00
2016,08,11,10,42,613.00
2016,08,11,10,43,617.00
2016,08,11,10,44,619.00
2016,08,11,10,45,621.00
2016,08,11,10,46,626.00
2016,08,11,10,47,628.00
2016,08,11,10,48,629.00
2016,08,11,10,49,633.00
2016,08,11,10,50,633.00
2016,08,11,10,51,636.00
2016,08,11,10,52,640.00
2016,08,11,10,53,642.00
2016,08,11,10,54,643.00
2016,08,11,10,55,647.00
2016,08,11,10,56,647.00
2016,08,11,10,57,650.00
2016,08,11,10,58,654.00
2016,08,11,10,59,657.00
2016,08,11,11,00,659.00
2016,08,11,11,01,661.00
2016,08,11,11,02,663.00
2016,08,11,11,03,663.00
2016,08,11,11,04,668.00
2016,08,11,11,05,670.00
2016,08,11,11,06,673.00
2016,08,11,11,07,675.00
2016,08,11,11,08,677.00
2016,08,11,11,09,682.00
2016,08,11,11,10,684.00
2016,08,11,11,11,682.00
2016,08,11,11,12,686.00
2016,08,11,11,13,689.00
2016,08,11,11,14,689.00
2016,08,11,11,15,693.00
2016,08,11,11,16,696.00
2016,08,11,11,17,696.00
2016,08,11,11,18,700.00
2016,08,11,11,19,701.00
2016,08,11,11,20,700.00
2016,08,11,11,21,707.00
2016,08,11,11,22,708.00
2016,08,11,11,23,708.00
2016,08,11,11,24,710.00
2016,08,11,11,25,712.00
2016,08,11,11,26,714.00
2016,08,11,11,27,717.00
2016,08,11,11,28,719.00
2016,08,11,11,29,722.00
2016,08,11,11,30,724.00
2016,08,11,11,31,726.00
2016,08,11,11,32,728.00
2016,08,11,11,33,731.00
2016,08,11,11,34,731.00
2016,08,11,11,35,733.00
2016,08,11,11,36,737.00
2016,08,11,11,37,735.00
2016,08,11,11,38,740.00
2016,08,11,11,39,742.00
2016,08,11,11,40,733.00
2016,08,11,11,41,747.00
2016,08,11,11,42,749.00
2016,08,11,11,43,749.00
2016,08,11,11,44,752.00
2016,08,11,11,45,754.00
2016,08,11,11,46,756.00
2016,08,11,11,47,758.00
2016,08,11,11,48,758.00
2016,08,11,11,49,759.00
2016,08,11,11,50,765.00
2016,08,11,11,51,765.00
2016,08,11,11,52,766.00
2016,08,11,11,53,770.00
2016,08,11,11,54,772.00
2016,08,11,11,55,770.00
2016,08,11,11,56,773.00
2016,08,11,11,57,775.00
2016,08,11,11,58,777.00
2016,08,11,11,59,779.00
2016,08,11,12,00,780.00
2016,08,11,12,01,780.00
2016,08,11,12,02,784.00
2016,08,11,12,03,784.00
2016,08,11,12,04,784.00
2016,08,11,12,05,786.00
2016,08,11,12,06,789.00
2016,08,11,12,07,789.00
2016,08,11,12,08,793.00
2016,08,11,12,09,795.00
2016,08,11,12,10,798.00
2016,08,11,12,11,798.00
2016,08,11,12,12,800.00
2016,08,11,12,13,802.00
2016,08,11,12,14,800.00
2016,08,11,12,15,805.00
2016,08,11,12,16,805.00
2016,08,11,12,17,803.00
2016,08,11,12,18,807.00
2016,08,11,12,19,809.00
2016,08,11,12,20,812.00
2016,08,11,12,21,814.00
2016,08,11,12,22,814.00
2016,08,11,12,23,816.00
2016,08,11,12,24,816.00
2016,08,11,12,25,817.00
2016,08,11,12,26,823.00
2016,08,11,12,27,821.00
2016,08,11,12,28,824.00
2016,08,11,12,29,824.00
2016,08,11,12,30,826.00
2016,08,11,12,31,828.00
2016,08,11,12,32,830.00
2016,08,11,12,33,831.00
2016,08,11,12,34,830.00
2016,08,11,12,35,835.00
2016,08,11,12,36,833.00
2016,08,11,12,37,837.00
2016,08,11,12,38,837.00
2016,08,11,12,39,837.00
2016,08,11,12,40,838.00
2016,08,11,12,41,838.00
2016,08,11,12,42,838.00
2016,08,11,12,43,844.00
2016,08,11,12,44,842.00
2016,08,11,12,45,844.00
2016,08,11,12,46,846.00
2016,08,11,12,47,844.00
2016,08,11,12,48,847.00
2016,08,11,12,49,847.00
2016,08,11,12,50,849.00
2016,08,11,12,51,851.00
2016,08,11,12,52,851.00
2016,08,11,12,53,851.00
2016,08,11,12,54,853.00
2016,08,11,12,55,856.00
2016,08,11,12,56,853.00
2016,08,11,12,57,856.00
2016,08,11,12,58,856.00
2016,08,11,12,59,858.00
2016,08,11,13,00,858.00
2016,08,11,13,01,860.00
2016,08,11,13,02,858.00
2016,08,11,13,03,860.00
2016,08,11,13,04,863.00
2016,08,11,13,05,863.00
2016,08,11,13,06,865.00
2016,08,11,13,07,865.00
2016,08,11,13,08,868.00
2016,08,11,13,09,867.00
2016,08,11,13,10,865.00
2016,08,11,13,11,867.00
2016,08,11,13,12,865.00
2016,08,11,13,13,867.00
2016,08,11,13,14,872.00
2016,08,11,13,15,870.00
2016,08,11,13,16,870.00
2016,08,11,13,17,868.00
2016,08,11,13,18,872.00
2016,08,11,13,19,874.00
2016,08,11,13,20,872.00
2016,08,11,13,21,874.00
2016,08,11,13,22,874.00
2016,08,11,13,23,874.00
2016,08,11,13,24,875.00
2016,08,11,13,25,877.00
2016,08,11,13,26,877.00
2016,08,11,13,27,879.00
2016,08,11,13,28,879.00
2016,08,11,13,29,879.00
2016,08,11,13,30,877.00
2016,08,11,13,31,877.00
2016,08,11,13,32,877.00
2016,08,11,13,33,877.00
2016,08,11,13,34,877.00
2016,08,11,13,35,881.00
2016,08,11,13,36,882.00
2016,08,11,13,37,882.00
2016,08,11,13,38,881.00
2016,08,11,13,39,884.00
2016,08,11,13,40,882.00
2016,08,11,13,41,884.00
2016,08,11,13,42,886.00
2016,08,11,13,44,884.00
2016,08,11,13,45,884.00
2016,08,11,13,46,882.00
2016,08,11,13,47,884.00
2016,08,11,13,48,886.00
2016,08,11,13,49,884.00
2016,08,11,13,50,886.00
2016,08,11,13,51,886.00
2016,08,11,13,52,884.00
2016,08,11,13,53,884.00
2016,08,11,13,54,882.00
2016,08,11,13,55,884.00
2016,08,11,13,56,884.00
2016,08,11,13,57,886.00
2016,08,11,13,58,884.00
2016,08,11,13,59,884.00
2016,08,11,14,00,882.00
2016,08,11,14,01,886.00
2016,08,11,14,02,882.00
2016,08,11,14,03,886.00
2016,08,11,14,04,884.00
2016,08,11,14,05,884.00
2016,08,11,14,06,882.00
2016,08,11,14,07,881.00
2016,08,11,14,08,884.00
2016,08,11,14,09,882.00
2016,08,11,14,10,884.00
2016,08,11,14,11,884.00
2016,08,11,14,12,882.00
2016,08,11,14,13,884.00
2016,08,11,14,14,884.00
2016,08,11,14,15,882.00
2016,08,11,14,16,886.00
2016,08,11,14,17,882.00
2016,08,11,14,18,886.00
2016,08,11,14,19,884.00
2016,08,11,14,20,882.00
2016,08,11,14,21,882.00
2016,08,11,14,22,882.00
2016,08,11,14,23,884.00
2016,08,11,14,24,882.00
2016,08,11,14,25,882.00
2016,08,11,14,26,882.00
2016,08,11,14,27,881.00
2016,08,11,14,28,881.00
2016,08,11,14,29,881.00
2016,08,11,14,30,881.00
2016,08,11,14,31,879.00
2016,08,11,14,32,877.00
2016,08,11,14,33,877.00
2016,08,11,14,34,877.00
2016,08,11,14,35,877.00
2016,08,11,14,36,875.00
2016,08,11,14,37,875.00
2016,08,11,14,38,875.00
2016,08,11,14,39,877.00
2016,08,11,14,40,874.00
2016,08,11,14,41,874.00
2016,08,11,14,42,874.00
2016,08,11,14,43,872.00
2016,08,11,14,44,872.00
2016,08,11,14,45,870.00
2016,08,11,14,47,870.00
2016,08,11,14,48,868.00
2016,08,11,14,49,867.00
2016,08,11,14,50,868.00
2016,08,11,14,51,870.00
2016,08,11,14,52,867.00
2016,08,11,14,53,867.00
2016,08,11,14,54,865.00
2016,08,11,14,55,865.00
2016,08,11,14,56,865.00
2016,08,11,14,57,863.00
2016,08,11,14,58,858.00
2016,08,11,14,59,861.00
2016,08,11,15,00,856.00
2016,08,11,15,01,856.00
2016,08,11,15,02,858.00
2016,08,11,15,03,854.00
2016,08,11,15,04,853.00
2016,08,11,15,05,854.00
2016,08,11,15,06,853.00
2016,08,11,15,07,853.00
2016,08,11,15,08,849.00
2016,08,11,15,09,849.00
2016,08,11,15,10,847.00
2016,08,11,15,11,847.00
2016,08,11,15,12,846.00
2016,08,11,15,13,844.00
2016,08,11,15,14,847.00
2016,08,11,15,15,842.00
2016,08,11,15,16,847.00
2016,08,11,15,17,842.00
2016,08,11,15,18,842.00
2016,08,11,15,19,838.00
2016,08,11,15,20,838.00
2016,08,11,15,21,837.00
2016,08,11,15,22,835.00
2016,08,11,15,23,835.00
2016,08,11,15,24,833.00
2016,08,11,15,25,833.00
2016,08,11,15,26,833.00
2016,08,11,15,27,828.00
2016,08,11,15,28,828.00
2016,08,11,15,29,826.00
2016,08,11,15,30,828.00
2016,08,11,15,31,828.00
2016,08,11,15,32,613.00
2016,08,11,15,33,823.00
2016,08,11,15,34,823.00
2016,08,11,15,35,823.00
2016,08,11,15,36,823.00
2016,08,11,15,37,821.00
2016,08,11,15,38,823.00
2016,08,11,15,39,817.00
2016,08,11,15,40,819.00
2016,08,11,15,41,814.00
2016,08,11,15,42,817.00
2016,08,11,15,43,814.00
2016,08,11,15,44,814.00
2016,08,11,15,45,768.00
2016,08,11,15,46,659.00
2016,08,11,15,47,659.00
2016,08,11,15,48,816.00
2016,08,11,15,49,816.00
2016,08,11,15,50,816.00
2016,08,11,15,51,802.00
2016,08,11,15,52,814.00
2016,08,11,15,53,717.00
2016,08,11,15,54,770.00
2016,08,11,15,55,821.00
2016,08,11,15,56,816.00
2016,08,11,15,57,795.00
2016,08,11,15,58,754.00
2016,08,11,15,59,754.00
2016,08,11,16,00,754.00
2016,08,11,16,01,754.00
2016,08,11,16,02,218.00
2016,08,11,16,03,153.00
2016,08,11,16,04,234.00
2016,08,11,16,05,234.00
2016,08,11,16,06,482.00
2016,08,11,16,07,506.00
2016,08,11,16,08,510.00
2016,08,11,16,09,557.00
2016,08,11,16,10,654.00
2016,08,11,16,11,726.00
2016,08,11,16,12,726.00
2016,08,11,16,13,418.00
2016,08,11,16,14,330.00
2016,08,11,16,15,819.00
2016,08,11,16,16,810.00
2016,08,11,16,17,802.00
2016,08,11,16,18,796.00
2016,08,11,16,19,788.00
2016,08,11,16,20,775.00
2016,08,11,16,21,770.00
2016,08,11,16,22,765.00
2016,08,11,16,23,759.00
2016,08,11,16,24,754.00
2016,08,11,16,25,751.00
2016,08,11,16,26,744.00
2016,08,11,16,27,738.00
2016,08,11,16,28,735.00
2016,08,11,16,29,733.00
2016,08,11,16,30,731.00
2016,08,11,16,31,729.00
2016,08,11,16,32,721.00
2016,08,11,16,33,721.00
2016,08,11,16,34,717.00
2016,08,11,16,35,714.00
2016,08,11,16,36,712.00
2016,08,11,16,37,708.00
2016,08,11,16,38,707.00
2016,08,11,16,39,705.00
2016,08,11,16,40,703.00
2016,08,11,16,41,703.00
2016,08,11,16,42,703.00
2016,08,11,16,43,694.00
2016,08,11,16,44,694.00
2016,08,11,16,45,694.00
2016,08,11,16,46,691.00
2016,08,11,16,47,693.00
2016,08,11,16,48,693.00
2016,08,11,16,49,636.00
2016,08,11,16,50,617.00
2016,08,11,16,51,617.00
2016,08,11,16,52,492.00
2016,08,11,16,53,533.00
2016,08,11,16,54,550.00
2016,08,11,16,55,404.00
2016,08,11,16,56,399.00
2016,08,11,16,57,399.00
2016,08,11,16,58,573.00
2016,08,11,17,00,592.00
2016,08,11,17,01,610.00
2016,08,11,17,02,608.00
2016,08,11,17,03,541.00
2016,08,11,17,04,510.00
2016,08,11,17,05,533.00
2016,08,11,17,06,631.00
2016,08,11,17,07,622.00
2016,08,11,17,08,624.00
2016,08,11,17,09,615.00
2016,08,11,17,10,605.00
2016,08,11,17,11,566.00
2016,08,11,17,12,577.00
2016,08,11,17,13,598.00
2016,08,11,17,14,592.00
2016,08,11,17,15,503.00
2016,08,11,17,16,471.00
2016,08,11,17,17,515.00
2016,08,11,17,18,603.00
2016,08,11,17,20,552.00
2016,08,11,17,21,297.00
2016,08,11,17,24,79.00
2016,08,11,17,25,130.00
2016,08,11,17,26,130.00
2016,08,11,17,27,241.00
2016,08,11,17,28,172.00
2016,08,11,17,29,188.00
2016,08,11,17,30,202.00
2016,08,11,17,31,236.00
2016,08,11,17,32,236.00
2016,08,11,17,33,236.00
2016,08,11,17,34,63.00
2016,08,11,17,35,60.00
2016,08,11,17,36,40.00
2016,08,11,17,37,40.00
2016,08,11,17,38,44.00
2016,08,11,17,39,95.00
2016,08,11,17,40,113.00
2016,08,11,17,41,70.00
2016,08,11,17,42,40.00
2016,08,11,17,43,39.00
2016,08,11,17,44,39.00
2016,08,11,17,45,40.00
2016,08,11,17,46,86.00
2016,08,11,17,47,86.00